TimeCST,TemperatureF,Dew PointF,Humidity,Sea Level PressureIn,VisibilityMPH,Wind Direction,Wind SpeedMPH,Gust SpeedMPH,PrecipitationIn,Events,Conditions,WindDirDegrees,DateUTC
12:53 AM,27.0,24.1,89,30.44,10.0,ENE,4.6,-,N/A,,Clear,60,2013-11-14 06:53:00
1:53 AM,27.0,24.1,89,30.44,10.0,NE,3.5,-,N/A,,Clear,50,2013-11-14 07:53:00
2:53 AM,28.0,24.1,85,30.43,10.0,Calm,Calm,-,N/A,,Clear,0,2013-11-14 08:53:00
3:53 AM,28.0,23.0,81,30.42,10.0,ENE,4.6,-,N/A,,Clear,70,2013-11-14 09:53:00
4:53 AM,28.0,21.9,78,30.43,10.0,ENE,4.6,-,N/A,,Clear,60,2013-11-14 10:53:00
5:53 AM,28.0,21.9,78,30.42,10.0,ENE,4.6,-,N/A,,Clear,60,2013-11-14 11:53:00
6:53 AM,27.0,21.9,81,30.43,10.0,NE,3.5,-,N/A,,Clear,40,2013-11-14 12:53:00
7:53 AM,36.0,26.1,67,30.44,10.0,Calm,Calm,-,N/A,,Clear,0,2013-11-14 13:53:00
8:53 AM,45.0,25.0,46,30.44,10.0,SSE,9.2,-,N/A,,Clear,160,2013-11-14 14:53:00
9:53 AM,51.1,21.0,31,30.43,10.0,South,9.2,-,N/A,,Clear,170,2013-11-14 15:53:00
10:53 AM,54.0,17.1,23,30.39,10.0,South,9.2,-,N/A,,Clear,170,2013-11-14 16:53:00
11:53 AM,55.9,17.1,22,30.35,10.0,Variable,5.8,-,N/A,,Clear,0,2013-11-14 17:53:00
12:53 PM,57.9,18.0,21,30.30,10.0,SE,6.9,-,N/A,,Clear,140,2013-11-14 18:53:00
1:53 PM,59.0,19.0,21,30.26,10.0,SE,8.1,-,N/A,,Clear,140,2013-11-14 19:53:00
2:53 PM,60.1,19.9,21,30.24,10.0,ESE,9.2,-,N/A,,Clear,120,2013-11-14 20:53:00
3:53 PM,59.0,21.9,24,30.23,10.0,SSE,11.5,-,N/A,,Clear,150,2013-11-14 21:53:00
4:53 PM,54.0,28.0,37,30.23,10.0,SE,3.5,-,N/A,,Clear,130,2013-11-14 22:53:00
5:53 PM,46.0,32.0,58,30.22,10.0,Calm,Calm,-,N/A,,Clear,0,2013-11-14 23:53:00
6:53 PM,43.0,33.1,68,30.21,10.0,Calm,Calm,-,N/A,,Clear,0,2013-11-15 00:53:00
7:53 PM,48.0,30.9,52,30.20,10.0,ESE,9.2,-,N/A,,Clear,110,2013-11-15 01:53:00
8:53 PM,50.0,30.9,48,30.20,10.0,SSE,12.7,-,N/A,,Mostly Cloudy,160,2013-11-15 02:53:00
9:53 PM,48.9,33.1,54,30.22,10.0,South,8.1,-,N/A,,Mostly Cloudy,180,2013-11-15 03:53:00
10:53 PM,48.9,34.0,56,30.20,10.0,SSE,9.2,-,N/A,,Partly Cloudy,160,2013-11-15 04:53:00
11:53 PM,48.0,35.1,61,30.17,10.0,South,9.2,-,N/A,,Scattered Clouds,180,2013-11-15 05:53:00